PROBA-1 1 26958U 01049B 25352.93838508 .00003619 00000+0 24099-3 0 9990 2 26958 97.9587 350.3057 0056531 13.6032 346.6702 15.06492516316473 CUTE-1 (CO-55) 1 27844U 03031E 25352.98324966 .00000301 00000+0 14973-3 0 9996 2 27844 98.6761 358.8057 0009449 355.5071 4.6022 14.24184574166021 CUBESAT XI-IV (CO-57) 1 27848U 03031J 25352.95279952 .00000254 00000+0 13094-3 0 9991 2 27848 98.6790 358.6327 0009695 13.5446 346.5991 14.23491779165732 APRIZESAT 4 1 35684U 09041D 25352.65478408 .00000784 00000+0 10089-3 0 9998 2 35684 98.1636 59.2500 0043483 185.3147 174.7610 14.83505898884594 APRIZESAT 3 1 35686U 09041F 25352.89544129 .00001249 00000+0 11479-3 0 9991 2 35686 98.1798 132.8705 0061571 303.0827 56.4490 14.95443595889429 PROBA-2 1 36037U 09059B 25352.49026861 .00000266 00000+0 72665-4 0 9998 2 36037 98.2371 173.3872 0014213 116.6742 243.5912 14.54716080855257 APRIZESAT 5 1 37792U 11044E 25352.80007392 .00000863 00000+0 11762-3 0 9990 2 37792 98.2366 275.9043 0051651 222.5346 137.1860 14.80588227772092 APRIZESAT 6 1 37793U 11044F 25352.98242079 .00000797 00000+0 12075-3 0 9997 2 37793 98.2461 254.7394 0042354 303.5750 120.1149 14.76549561770556 PROBA-V 1 39159U 13021A 25352.90627920 .00000068 00000+0 47714-4 0 9996 2 39159 98.3393 335.6161 0003244 312.6391 47.4515 14.23549293655461 APRIZESAT 7 1 39416U 13066A 25351.58791045 .00001184 00000+0 12412-3 0 9990 2 39416 97.7478 302.7623 0037879 93.0669 267.4884 14.90916766654167 APRIZESAT 8 1 39425U 13066K 25352.85326500 .00000854 00000+0 99367-4 0 9999 2 39425 97.8012 298.1436 0046873 157.5277 202.8006 14.87127408652864 BUGSAT-1 (TITA) 1 40014U 14033E 25352.93693950 .00003728 00000+0 21089-3 0 9993 2 40014 98.0566 70.1845 0030712 76.3929 284.0718 15.13360731628555 SAUDISAT 4 1 40016U 14033G 25352.93417457 .00000645 00000+0 92586-4 0 9997 2 40016 97.7302 140.6401 0043891 301.0596 58.6311 14.79180584619429 APRIZESAT 9 1 40018U 14033J 25352.91775675 .00000514 00000+0 83249-4 0 9997 2 40018 97.8795 125.8634 0067717 60.5664 300.2280 14.73896451617001 APRIZESAT 10 1 40019U 14033K 25352.90764467 .00000592 00000+0 10070-3 0 9991 2 40019 97.9412 119.2098 0080217 128.9577 231.8813 14.70607456615755 TECHDEMOSAT-1 (TDS-1) 1 40076U 14037H 25352.90965190 .00007320 00000+0 45985-3 0 9993 2 40076 98.3668 322.9198 0007693 141.8949 218.2823 15.09582749620996 TECHNOSAT 1 42829U 17042E 25352.91815656 .00003018 00000+0 22514-3 0 9995 2 42829 97.4052 152.8585 0017941 354.3246 5.7774 15.03460724459603 FLYING LAPTOP 1 42831U 17042G 25352.93949909 .00002912 00000+0 23850-3 0 9995 2 42831 97.4241 151.2765 0014624 29.1018 331.1018 14.99952026459420 HAWK-A 1 43765U 18099H 25352.63831433 .00006973 00000+0 30578-3 0 9990 2 43765 97.4208 42.3059 0036675 197.7763 162.2193 15.21678456385619 HAWK-B 1 43794U 18099AN 25352.91791975 .00005525 00000+0 25508-3 0 9998 2 43794 97.4256 42.3440 0033126 213.1662 146.7497 15.20128225385625 HAWK-C 1 43799U 18099AT 25352.59965008 .00007393 00000+0 29483-3 0 9998 2 43799 97.4185 42.3607 0043159 201.5137 158.4289 15.24616576386367 SALSAT 1 46495U 20068K 25352.95618297 .00006686 00000+0 25950-3 0 9997 2 46495 97.8779 340.5640 0009430 204.5533 155.5257 15.26426157287834 HAWK-2C 1 47502U 21006CT 25352.64690550 .00006309 00000+0 20798-3 0 9995 2 47502 97.2557 35.6272 0008721 121.8228 238.3864 15.31760927271838 HAWK-2A 1 47505U 21006CW 25352.64999243 .00006281 00000+0 20708-3 0 9999 2 47505 97.2602 36.2027 0008254 124.0039 236.1988 15.31767432271834 HAWK-2B 1 47508U 21006CZ 25352.64725154 .00006355 00000+0 20948-3 0 9998 2 47508 97.2469 34.8369 0008947 122.6612 237.5495 15.31761175271837 HAWK-3B 1 48931U 21059BE 25352.51373206 .00023383 00000+0 34457-3 0 9990 2 48931 97.6690 169.1058 0005204 274.7785 85.2874 15.55404114249644 HAWK-3C 1 48948U 21059BX 25352.51348836 .00022871 00000+0 33701-3 0 9991 2 48948 97.6850 174.4285 0005642 276.7020 83.3592 15.55407055249644 HAWK-3A 1 48957U 21059CG 25352.51332707 .00023734 00000+0 34968-3 0 9996 2 48957 97.6778 171.7949 0005332 275.5387 84.5258 15.55405175249642 HAWK-5C 1 52754U 22057Y 25352.92701977 .00013493 00000+0 29960-3 0 9996 2 52754 97.6371 137.2797 0005703 12.9178 347.2214 15.43819992198469 HAWK-5B 1 52756U 22057AA 25352.92685063 .00013441 00000+0 29847-3 0 9992 2 52756 97.6356 135.6351 0005703 9.0027 351.1321 15.43817940198466 HAWK-5A 1 52757U 22057AB 25352.92661494 .00014203 00000+0 31530-3 0 9994 2 52757 97.6367 136.4592 0005952 9.9242 350.2121 15.43810674198464 HAWK-6B 1 55324U 23011A 25352.33728828 .00005372 00000+0 24769-3 0 9991 2 55324 40.5157 325.1941 0003754 231.1530 128.8944 15.20714660160287 HAWK-6C 1 55326U 23011C 25352.27100341 .00005334 00000+0 24596-3 0 9996 2 55326 40.4846 322.6649 0003289 221.9802 138.0754 15.20712366160285 HAWK-6A 1 55327U 23011D 25352.33669508 .00005349 00000+0 24666-3 0 9993 2 55327 40.5005 323.7792 0003095 227.0745 132.9804 15.20713193160292 HAWK-7A 1 56191U 23054P 25352.67461057 .00005638 00000+0 20316-3 0 9995 2 56191 97.2942 239.3306 0010354 345.5164 14.5778 15.28899774149471 HAWK-7B 1 56193U 23054R 25352.93622985 .00002523 00000+0 92294-4 0 9990 2 56193 97.2915 237.7818 0009809 352.3369 7.7720 15.28936646149515 HAWK-7C 1 56200U 23054Y 25352.60876863 .00005218 00000+0 18776-3 0 9995 2 56200 97.2952 238.2827 0009738 357.4596 2.6593 15.28986799149460